Regional Weather Roundup
Issued by NWS Bismarck, ND

Home | Current Version | Previous Version | Text Only | Print | Product List | Glossary On
Versions: 1 2 3 4 5 6 7 8 9 10 11 12 13 14 15 16 17 18 19 20 21 22 23 24 25 26 27 28 29 30 31 32 33 34 35 36 37 38 39 40 41 42 43 44 45 46 47 48 49 50
000
ASUS43 KBIS 150410
RWRBIS

NWR BROADCAST TEXT
NATIONAL WEATHER SERVICE BISMARCK ND
1000 PM CST THU DEC 14 2017

NOTE: "FAIR" INDICATES FEW OR NO CLOUDS BELOW 12,000 FEET WITH NO
SIGNIFICANT WEATHER AND/OR OBSTRUCTIONS TO VISIBILITY.


CITY           SKY/WX    TMP DP  RH WIND       PRES   REMARKS
WILLISTON      FAIR      25  21  85 SE3       30.03F
MINOT          CLOUDY    32  22  66 NW17      29.99F
MINOT AFB      CLOUDY    31  22  70 NW14      29.98F
BISMARCK       CLOUDY    35  25  66 W8        30.03F
DICKINSON      FAIR      21  17  84 W8        30.00F WCI  11
GARRISON         N/A     31  25  78 NW13      30.00F
HETTINGER ARPT CLEAR     18  15  88 CALM      30.05F
JAMESTOWN      CLOUDY    32  27  81 NW16      29.96F
CARRINGTON     CLOUDY    32  27  80 NW15G21   29.98F
HAZEN          CLOUDY    34  27  75 W6        30.03F
LINTON           N/A     34  23  64 W8        30.03F
MANDAN         CLOUDY    34  27  75 W13       30.01F
OAKES            N/A     30  30 100 W8        30.00F
RUGBY          CLOUDY    28  28 100 NW8       29.97S
STANLEY        CLOUDY    28  27  93 NW7       30.01F
TIOGA          CLOUDY    28  28 100 NW9       30.01F WCI  20
WATFORD CITY   FAIR      23  21  93 SW6       30.02F WCI  16
$$

CITY           SKY/WX    TMP DP  RH WIND       PRES   REMARKS
GRAND FORKS    CLOUDY    20  18  92 NW5       30.01F WCI  13
GRAND FORKS AF CLOUDY    20  18  93 CALM      30.01F
DEVILS LAKE    CLOUDY    24  22  91 E10       29.98S WCI  14
FARGO          CLOUDY    22  20  92 E6        30.00F WCI  14
CANDO          CLOUDY    23  23 100 E5        30.00S WCI  17
CAVALIER       LGT SNOW  19  16  86 N9        30.02F WCI   9
GRAFTON        CLOUDY    21  18  86 N9        30.04S WCI  11
GWINNER          N/A     30  28  93 W10       29.98F
LANGDON        CLOUDY    19  21 100 NE7       29.97F WCI  10
ROLLA          CLOUDY    21  21 100 CALM      29.97S
WALHALLA       FAIR      19  19 100 N9G17     30.02F WCI   9
$$

CITY           SKY/WX    TMP DP  RH WIND       PRES   REMARKS
ABERDEEN       CLOUDY    30  26  85 W8        30.04F
MOBRIDGE       CLOUDY    34  25  69 W8        30.04F
BUFFALO          N/A     20  16  84 W13       29.99F WCI   7
RAPID CITY     CLOUDY    16  11  80 CALM      30.12F
GLASGOW        CLOUDY    21  18  88 CALM      30.02F
SIDNEY         CLOUDY    23  20  88 S3        30.04F
WOLF POINT     CLOUDY    15  13  91 W3        30.04F
GLENDIVE       CLOUDY    24  19  81 SE6       30.05F WCI  17
MILES CITY     CLOUDY    24  20  84 SE7       30.05F WCI  16
BAKER          CLOUDY    24  20  84 W12       30.05F WCI  13
$$

CITY           SKY/WX    TMP DP  RH WIND       PRES   REMARKS
BILLINGS       CLOUDY    38  19  46 W17       30.08F
GREAT FALLS    CLOUDY    34  19  54 SW18      30.07F
REGINA         CLOUDY    21  21 100 S8        29.95F WCI  12
ESTEVAN        CLOUDY    28  21  74 W7        29.99F
$$





USA.gov is the U.S. government's official web portal to all federal, state and local government web resources and services.